一网星座-0240星 (ONEWEB-0240 )

导读

ONEWEB-0240是英国OneWeb星座下的低轨互联网通信卫星,于2021年5月28日成功发射入轨。它运行在近地轨道,属于OneWeb一期全球通信星座的组成部分。OneWeb星座旨在为全球提供宽带互联网接入服务,主要服务电信运营商客户。遵循空间碎片规范,寿命末期会主动离轨,保障轨道环境安全,助力全球偏远地区网络覆盖。

Basic Information
目录编号:
48785
目录名称:
ONEWEB-0240
国际标识:
2021-045U
轨道中心:
EARTH
卫星名称:
一网星座-0240星
卫星全名:
一网星座-0240星 (ONEWEB-0240 )
卫星状态:
在轨 (已飞行1841 天)
发射日期:
2021-05-28 UTC
国别 :
英国 (GB)
星等 :
--
Orbit Information
数据来源 国际轨道数据 AOE轨道数据
星历时间 2026-06-12T13:44:30+0800
16小时前
查看轨道信息
2026-06-08T02:00:00+0800
5天前
查看轨道信息
半长轴 7579.913km 7579.917km
偏心率 0.0001804 0.0001796
轨道倾角 87.901° 87.901°
近地点辐角 109.948° 111.839°
升交点赤经 260.168° 261.062°
平近点角 250.185° 239.551°
近地点 1200.408km 1200.418km
远地点 1203.144km 1203.142km
周期 109.460分钟 109.460分钟
每日圈数 13.155472 13.155463
Detailed Information
平衡模式:
三轴稳定
覆盖范围:
全球
运营商:
一网卫星公司
运营商所在国:
英国
制造商(研发单位):
一网卫星公司
制造商所在国:
英国
使用方式:
暂无
Satellite Introduction
OneWeb卫星网络由648颗重约125公斤的微型卫星组成,运行在1200公里的轨道上。 每颗卫星都能够提供至少每秒8千兆位的吞吐量,以使用其高吞吐量的Ku频段有效载荷为家庭和移动平台提供互联网接入。该卫星仍在工作。
2D Orbit Map
3D Orbit Map
Orbit Altitude Analysis Chart
Orbit Inclination Analysis Chart
Orbit Comprehensive Analysis Chart
View Comprehensive Chart